Weather History for Rexburg, ID

Change the Weather History Date:

Saturday, October 6, 2012

  Actual Average Record
Temperature  
Mean Temperature 38 °F 48 °F  
Max Temperature 53 °F 63 °F 126 °F (2007)
Min Temperature 22 °F 34 °F 21 °F (2000)
Degree Days  
Heating Degree Days 27 17  
Month to date heating degree days 112 95  
Since 1 July heating degree days 288 453  
Cooling Degree Days 0 0  
Month to date cooling degree days 0 0  
Year to date cooling degree days 419 208  
Moisture  
Dew Point 8 °F    
Average Humidity 40    
Maximum Humidity 71    
Minimum Humidity 9    
Precipitation  
Precipitation 0.00 in 0.04 in 1.05 in (2007)
Month to date precipitation 0.00 0.21  
Year to date precipitation 6.64 10.09  
Sea Level Pressure  
Sea Level Pressure 30.30 in    
Wind  
Wind Speed 4 mph (NE)    
Max Wind Speed 13 mph    
Max Gust Speed 18 mph    
Visibility 10 miles    
Events      
T = Trace of Precipitation, MM = Missing Value Source: NWS Daily Summary

Daily Weather History Graph

Daily Weather History Graph

Search for Another Location

Airport:

Trip Planner

Search our weather history database for the weather conditions in past years. The results will help you decide how hot, cold, wet, or windy it might be!

Date:

Astronomy

Oct. 06, 2012 Rise Set
Actual Time 7:31 AM MDT 6:58 PM MDT
Civil Twilight 7:02 AM MDT 7:26 PM MDT
Nautical Twilight 6:29 AM MDT 8:00 PM MDT
Astronomical Twilight 5:55 AM MDT 8:33 PM MDT
Moon 11:08 PM MDT (10/6) 1:37 PM MDT (10/6)
Length of Visible Light 12h 24m
Length of Day
11h 26m
Waning Gibbous, 65% of the Moon is Illuminated
Oct 6
Waning Gibbous
Oct 8
Last Quarter
Oct 15
New
Oct 21
First Quarter
Oct 29
Full

Hourly Weather History & Observations

Time (MDT) Temp. Windchill Dew Point Humidity Pressure Visibility Wind Dir Wind Speed Gust Speed Precip Events Conditions
12:53 AM 32.0 °F 24.8 °F 16.0 °F 52% 30.31 in 10.0 mi ENE 8.1 mph - N/A   Clear
1:53 AM 32.0 °F 23.6 °F 15.1 °F 50% 30.32 in 10.0 mi NE 10.4 mph - N/A   Clear
2:53 AM 30.0 °F 23.2 °F 15.1 °F 54% 30.33 in 10.0 mi NE 6.9 mph - N/A   Clear
3:53 AM 26.1 °F 18.4 °F 15.1 °F 63% 30.35 in 10.0 mi ENE 6.9 mph - N/A   Clear
4:53 AM 25.0 °F 17.1 °F 15.1 °F 66% 30.35 in 10.0 mi ENE 6.9 mph - N/A   Clear
5:53 AM 24.1 °F 16.0 °F 15.1 °F 69% 30.35 in 10.0 mi ENE 6.9 mph - N/A   Clear
6:53 AM 21.9 °F 15.7 °F 14.0 °F 72% 30.38 in 10.0 mi ENE 4.6 mph - N/A   Clear
7:53 AM 21.9 °F 13.4 °F 14.0 °F 72% 30.39 in 10.0 mi ENE 6.9 mph - N/A   Clear
8:53 AM 23.0 °F 18.4 °F 14.0 °F 68% 30.41 in 10.0 mi NNE 3.5 mph - N/A   Clear
9:53 AM 30.0 °F 22.4 °F 16.0 °F 56% 30.39 in 10.0 mi ENE 8.1 mph - N/A   Clear
10:53 AM 36.0 °F 29.6 °F 16.0 °F 44% 30.37 in 10.0 mi NE 8.1 mph - N/A   Clear
11:53 AM 39.9 °F - 12.0 °F 32% 30.33 in 10.0 mi Calm Calm - N/A   Clear
12:53 PM 44.1 °F 41.5 °F 8.1 °F 23% 30.30 in 10.0 mi Variable 4.6 mph - N/A   Clear
1:53 PM 46.9 °F - 5.0 °F 18% 30.26 in 10.0 mi Calm Calm - N/A   Clear
2:53 PM 48.9 °F - 1.0 °F 14% 30.23 in 10.0 mi NE 4.6 mph - N/A   Clear
3:53 PM 51.1 °F - -8.0 °F 9% 30.22 in 10.0 mi Calm Calm - N/A   Clear
4:53 PM 52.0 °F - -8.0 °F 8% 30.20 in 10.0 mi Calm Calm - N/A   Clear
5:53 PM 52.0 °F - -7.1 °F 9% 30.20 in 10.0 mi Calm Calm - N/A   Clear
6:53 PM 48.0 °F - -5.1 °F 11% 30.22 in 10.0 mi SW 4.6 mph - N/A   Clear
7:53 PM 46.0 °F - -4.0 °F 12% 30.24 in 10.0 mi Calm Calm - N/A   Clear
8:53 PM 39.9 °F 34.5 °F 6.1 °F 25% 30.27 in 10.0 mi NE 8.1 mph - N/A   Clear
9:53 PM 33.1 °F 30.0 °F 5.0 °F 31% 30.28 in 10.0 mi NE 3.5 mph - N/A   Clear
10:53 PM 32.0 °F 27.5 °F 3.9 °F 31% 30.28 in 10.0 mi NE 4.6 mph - N/A   Clear
11:53 PM 30.9 °F 27.5 °F 6.1 °F 35% 30.26 in 10.0 mi NNE 3.5 mph - N/A   Clear